DAL75 EHAM-KATL

Flight info

Callsign DAL75
Flight time N/A
Altitude 34000
Route BERGI L60 OTBED DCT ABLUC DCT OZRAT DCT WETFI DCT REVNU DCT RESNO/M080F360 DCT 55N020W 55N030W 54N040W 52N050W DCT TUDEP/N0464F360 N526A TOPPS/N0467F380 DCT KAYCC DCT KYLOH DCT BAF Q448 PTW J48 MOL DCT FLASK OZZZI2
Aircraft A339/H-SADE1E2E3GHIJ3J5M1P2RWXY/LB2D1

Departure

Time 2026-04-29 18:16
Airport Amsterdam Airport Schiphol (EHAM)

Arrival

Time N/A
Airport Hartsfield Jackson Atlanta International Airport (KATL)
Time Latitude Longitude Altitude Speed Heading
2026-04-29 17:27 52.31006 4.77020 3 ft 0 kts 178°
2026-04-29 18:00 52.31010 4.77020 3 ft 3 kts 178°
2026-04-29 18:01 52.31037 4.77018 3 ft 4 kts 178°
2026-04-29 18:01 52.31059 4.77013 3 ft 4 kts 195°
2026-04-29 18:01 52.31075 4.77023 4 ft 4 kts 224°
2026-04-29 18:01 52.31089 4.77041 6 ft 4 kts 278°
2026-04-29 18:02 52.31082 4.77079 6 ft 4 kts 279°
2026-04-29 18:02 52.31081 4.77087 5 ft 0 kts 276°
2026-04-29 18:04 52.31081 4.77080 5 ft 3 kts 275°
2026-04-29 18:04 52.31084 4.77008 6 ft 10 kts 274°
2026-04-29 18:05 52.31145 4.76939 3 ft 14 kts
2026-04-29 18:05 52.31231 4.77024 3 ft 14 kts 32°
2026-04-29 18:05 52.31310 4.77111 3 ft 13 kts 34°
2026-04-29 18:05 52.31388 4.77184 3 ft 12 kts 17°
2026-04-29 18:06 52.31473 4.77196 3 ft 12 kts
2026-04-29 18:06 52.31553 4.77176 3 ft 11 kts 325°
2026-04-29 18:06 52.31567 4.77057 3 ft 11 kts 269°
2026-04-29 18:06 52.31563 4.76932 3 ft 11 kts 267°
2026-04-29 18:07 52.31559 4.76801 3 ft 12 kts 267°
2026-04-29 18:07 52.31554 4.76665 3 ft 12 kts 266°
2026-04-29 18:07 52.31549 4.76527 3 ft 12 kts 266°
2026-04-29 18:07 52.31545 4.76385 3 ft 13 kts 268°
2026-04-29 18:08 52.31541 4.76237 3 ft 13 kts 267°
2026-04-29 18:08 52.31536 4.76088 3 ft 13 kts 266°
2026-04-29 18:08 52.31530 4.75930 3 ft 14 kts 266°
2026-04-29 18:08 52.31523 4.75770 3 ft 15 kts 266°
2026-04-29 18:09 52.31518 4.75601 3 ft 14 kts 267°
2026-04-29 18:09 52.31514 4.75493 3 ft 9 kts 266°
2026-04-29 18:09 52.31510 4.75383 3 ft 10 kts 266°
2026-04-29 18:09 52.31506 4.75266 3 ft 11 kts 267°
2026-04-29 18:10 52.31502 4.75142 3 ft 11 kts 267°
2026-04-29 18:10 52.31498 4.75015 3 ft 11 kts 266°
2026-04-29 18:10 52.31493 4.74886 3 ft 12 kts 266°
2026-04-29 18:10 52.31492 4.74869 3 ft 0 kts 266°
2026-04-29 18:12 52.31492 4.74867 3 ft 0 kts 267°
2026-04-29 18:12 52.31492 4.74861 3 ft 1 kts 267°
2026-04-29 18:12 52.31492 4.74847 3 ft 2 kts 267°
2026-04-29 18:13 52.31491 4.74827 3 ft 2 kts 267°
2026-04-29 18:13 52.31490 4.74800 3 ft 3 kts 267°
2026-04-29 18:13 52.31489 4.74767 3 ft 3 kts 267°
2026-04-29 18:13 52.31488 4.74728 3 ft 4 kts 269°
2026-04-29 18:14 52.31498 4.74692 4 ft 3 kts 298°
2026-04-29 18:14 52.31529 4.74667 3 ft 7 kts 342°
2026-04-29 18:14 52.31595 4.74660 5 ft 10 kts 357°
2026-04-29 18:14 52.31654 4.74683 8 ft 8 kts 37°
2026-04-29 18:15 52.31669 4.74766 5 ft 9 kts 85°
2026-04-29 18:15 52.31678 4.75057 0 ft 58 kts 86°
2026-04-29 18:15 52.31715 4.76109 5 ft 125 kts 87°
2026-04-29 18:15 52.31772 4.77820 110 ft 165 kts 86°
2026-04-29 18:16 52.31944 4.79625 802 ft 160 kts 66°
2026-04-29 18:16 52.32733 4.80894 1521 ft 166 kts 28°
2026-04-29 18:16 52.33916 4.81070 2095 ft 189 kts 355°
2026-04-29 18:16 52.35251 4.80404 2492 ft 210 kts 348°
2026-04-29 18:17 52.36716 4.79682 2796 ft 228 kts 351°
2026-04-29 18:17 52.38278 4.78924 3306 ft 240 kts 342°
2026-04-29 18:17 52.39709 4.77454 3892 ft 251 kts 321°
2026-04-29 18:17 52.40957 4.75353 4362 ft 264 kts 316°
2026-04-29 18:18 52.42268 4.73137 4588 ft 282 kts 317°
2026-04-29 18:18 52.43771 4.71027 5022 ft 284 kts 328°
2026-04-29 18:18 52.45388 4.69179 5633 ft 284 kts 329°
2026-04-29 18:18 52.47020 4.67332 6257 ft 284 kts 329°
2026-04-29 18:19 52.48656 4.65488 6877 ft 285 kts 329°
2026-04-29 18:19 52.50302 4.63642 7424 ft 287 kts 329°
2026-04-29 18:19 52.51962 4.61782 7983 ft 290 kts 329°
2026-04-29 18:19 52.53636 4.59902 8542 ft 292 kts 329°
2026-04-29 18:20 52.55298 4.58033 9101 ft 294 kts 329°
2026-04-29 18:20 52.56892 4.55868 9619 ft 303 kts 312°
2026-04-29 18:20 52.58004 4.52879 10233 ft 308 kts 299°
2026-04-29 18:20 52.58913 4.49679 10603 ft 318 kts 297°
2026-04-29 18:21 52.59852 4.46275 10754 ft 334 kts 297°
2026-04-29 18:21 52.60868 4.42740 10912 ft 349 kts 298°
2026-04-29 18:21 52.61958 4.39093 11176 ft 359 kts 299°